Flag for Germany Weather past 2 weeks in Schorndorf, Baden-Württemberg, Germany

Now
78 °F

Passing clouds.


Feels Like: 79 °F
Forecast: 52 / 79 °F
Wind: 5 mph from North

Location: Stuttgart-Echterdingen

Current Time: Jul 24, 2014 at 5:56:03 PM

Latest Report: Jul 24, 2014 at 4:00 PM


Visibility: 38 mi

Pressure: 29.85 "Hg

Humidity: 40%

Dew point: 52 °F

Location of SchorndorfLocation

Historic Weather in Schorndorf — Graph

°F

Schorndorf temperature yesterday

Maximum temperature yesterday: 80 °F (at 5:00 PM)
Minimum temperature yesterday: 60 °F (at 3:00 AM)
Average temperature yesterday: 71 °F

Past Weeks' High & Low Weather Summary

 TemperatureHumidityPressure
High91 °F (Jul 19, 4:00 PM)100% (Jul 23, 6:00 AM)30.20 "Hg (Jul 23, 6:00 AM)
Low52 °F (Jul 10, 12:00 AM)25% (Jul 18, 3:00 PM)29.77 "Hg (Jul 10, 6:00 AM)
Average67 °F72%29.95 "Hg
* Reported Jul 9 4:00 PM — Jul 24 4:00 PM, Schorndorf, Weather by CustomWeather, © 2014

Note: Actual official high and low records may vary slightly from our data, if they occured in-between our weather recording intervals... More about our weather records

Advertising

Schorndorf weather history for previous 24 hours

 ConditionsComfort  
Time TempWeatherWind HumidityBarometerVisibility
4:00 PM
Jul 24
78 °FPassing clouds.5 mph40%29.85 "Hg37 mi
3:00 PM76 °FPassing clouds.6 mph38%29.86 "Hg31 mi
2:00 PM77 °FPassing clouds.5 mph40%29.86 "Hg25 mi
1:00 PM75 °FPassing clouds.5 mph51%29.88 "Hg25 mi
12:00 PM74 °FPassing clouds.3 mph53%29.88 "Hg22 mi
10:00 AM71 °FPassing clouds.2 mph59%29.88 "Hg22 mi
9:00 AM68 °FPassing clouds.1 mph63%29.89 "Hg19 mi
8:00 AM66 °FPassing clouds.1 mph68%29.89 "Hg22 mi
7:00 AM62 °FScattered clouds.1 mph77%29.90 "Hg28 mi
6:00 AM59 °FScattered clouds.1 mph85%29.90 "Hg28 mi
5:00 AM61 °FPassing clouds.1 mph79%29.89 "Hg25 mi
4:00 AM61 °FPassing clouds.No wind78%29.90 "Hg28 mi
3:00 AM63 °FPassing clouds.2 mph74%29.91 "Hg28 mi
2:00 AM63 °FPassing clouds.1 mph74%29.93 "Hg31 mi
1:00 AM63 °FPassing clouds.2 mph76%29.93 "Hg34 mi
12:00 AM66 °FPassing clouds.No wind69%29.93 "Hg34 mi
10:00 PM
Jul 23
71 °FPassing clouds.2 mph59%29.93 "Hg37 mi
9:00 PM75 °FPartly sunny.5 mph49%29.90 "Hg37 mi
8:00 PM79 °FScattered clouds.5 mph40%29.88 "Hg34 mi
7:00 PM80 °FScattered clouds.6 mph37%29.88 "Hg34 mi
6:00 PM80 °FScattered clouds.5 mph41%29.88 "Hg31 mi
5:00 PM80 °FPartly sunny.5 mph40%29.90 "Hg31 mi
Weather by CustomWeather, © 2014

See weather overviewHow to use our weather pages